Location: Vinland
(47.7731°N, 122.6974°W)
Time: 21:16:38
(UTC+00:00)

Vanguard 3 - All Passes

Search period start: 21 March 2023 00:00
Search period end: 31 March 2023 00:00
Orbit: 509 x 3249 km, 33.3° (Epoch: 21 March)

Date Brightness Start Highest point End Pass type
(mag) Time Alt. Az. Time Alt. Az. Time Alt. Az.
21 Mar - 09:07:13 10° SSE 09:13:06 12° SE 09:18:54 10° ESE visible
21 Mar - 11:10:22 10° SSW 11:25:59 31° SSE 11:39:22 10° E visible
21 Mar - 13:22:31 10° SW 13:39:59 44° S 13:52:28 10° ESE visible
21 Mar - 15:38:04 10° WSW 15:53:27 42° SSW 16:03:15 10° SE daylight
21 Mar - 17:55:30 10° W 18:04:50 22° SW 18:11:23 10° S daylight
22 Mar - 09:55:34 10° S 10:08:41 23° SE 10:21:06 10° E visible
22 Mar - 12:05:00 10° SW 12:22:21 40° SSE 12:36:15 10° E visible
22 Mar - 14:19:10 10° WSW 14:36:27 46° S 14:48:10 10° ESE daylight
22 Mar - 16:35:42 10° W 16:49:08 34° SSW 16:57:53 10° SSE daylight
22 Mar - 18:56:14 10° WSW 18:59:24 11° SW 19:02:11 10° SSW daylight
23 Mar - 08:43:48 10° SSE 08:51:49 14° SE 08:59:54 10° ESE visible
23 Mar - 10:48:36 10° SSW 11:04:40 34° SSE 11:19:09 10° E visible
23 Mar - 13:00:51 10° WSW 13:18:54 47° S 13:32:26 10° ESE visible
23 Mar - 15:16:23 10° WSW 15:32:39 43° SSW 15:43:23 10° SE daylight
23 Mar - 17:34:03 10° W 17:44:15 23° SW 17:51:28 10° S daylight
24 Mar - 09:33:41 10° S 09:47:17 25° SE 10:00:48 10° E visible
24 Mar - 11:43:24 10° SW 12:01:03 43° SSE 12:15:59 10° E visible
24 Mar - 13:57:30 10° WSW 14:15:26 48° S 14:28:09 10° ESE daylight
24 Mar - 16:14:04 10° W 16:28:22 34° SSW 16:37:57 10° SSE daylight
24 Mar - 18:35:06 10° WSW 18:38:47 12° SW 18:42:00 10° SSW daylight
25 Mar - 08:21:16 10° SSE 08:30:26 16° SE 08:40:00 10° ESE visible
25 Mar - 10:27:03 10° SSW 10:43:14 36° SSE 10:58:41 10° E visible
25 Mar - 12:39:18 10° WSW 12:57:38 48° S 13:12:13 10° ESE visible
25 Mar - 14:54:43 10° W 15:11:40 43° SSW 15:23:22 10° SE daylight
25 Mar - 17:12:32 10° W 17:23:28 23° SW 17:31:23 10° S daylight
26 Mar - 09:12:05 10° S 09:25:49 27° SE 09:40:11 10° E visible
26 Mar - 11:21:58 10° SW 11:39:37 45° SSE 11:55:31 10° E visible
26 Mar - 13:35:55 10° WSW 13:54:13 49° S 14:07:57 10° ESE daylight
26 Mar - 15:52:24 10° W 16:07:25 34° SSW 16:17:51 10° SSE daylight
26 Mar - 18:13:59 10° WSW 18:17:59 12° SW 18:21:30 10° SW daylight
27 Mar - 07:59:17 10° SSE 08:09:00 17° SE 08:19:35 10° E visible
27 Mar - 10:05:42 10° SSW 10:21:43 38° SSE 10:37:58 10° E visible
27 Mar - 12:17:51 10° WSW 12:36:14 50° S 12:51:47 10° ESE visible
27 Mar - 14:33:05 10° W 14:50:31 43° SSW 15:03:09 10° SE daylight
27 Mar - 16:50:59 10° W 17:02:31 23° SW 17:11:06 10° S daylight
28 Mar - 08:50:44 10° SSW 09:04:17 29° SE 09:19:18 10° E visible
28 Mar - 11:00:41 10° SW 11:18:04 46° SSE 11:34:50 10° E visible
28 Mar - 13:14:26 10° WSW 13:32:51 49° S 13:47:34 10° ESE visible
28 Mar - 15:30:45 10° W 15:46:17 34° SSW 15:57:33 10° SSE daylight
28 Mar - 17:52:57 10° WSW 17:57:01 12° SW 18:00:40 10° SW daylight
29 Mar - 07:37:41 10° S 07:47:33 19° SE 07:58:46 10° E visible
29 Mar - 09:44:32 10° SW 10:00:07 40° SSE 10:17:01 10° E visible
29 Mar - 11:56:33 10° WSW 12:14:43 51° S 12:31:09 10° ESE visible
29 Mar - 14:11:30 10° W 14:29:11 43° SSW 14:42:44 10° SE daylight
29 Mar - 16:29:26 10° W 16:41:23 22° SW 16:50:35 10° S daylight
30 Mar - 08:29:36 10° SSW 08:42:44 30° SE 08:58:09 10° E visible
30 Mar - 10:39:34 10° SW 10:56:28 48° SSE 11:13:56 10° E visible
30 Mar - 12:53:02 10° WSW 13:11:21 49° S 13:26:58 10° ESE visible
30 Mar - 15:09:09 10° W 15:24:58 33° SSW 15:37:02 10° SSE daylight
30 Mar - 17:32:07 10° WSW 17:35:54 11° SW 17:39:21 10° SW daylight
